Weather Roundup
Issued by NWS Springfield, MO

Home | Current Version | Previous Version | Text Only | Print | Product List | Glossary On
Versions: 1 2 3 4 5 6 7 8 9 10 11 12 13 14 15 16 17 18 19 20 21 22 23 24 25 26 27 28 29 30 31 32 33 34 35 36 37 38 39 40 41 42 43 44 45 46 47 48 49 50
000
NZUS99 KSGF 241959
HRRSGF

HOURLY WEATHER
NATIONAL WEATHER SERVICE SPRINGFIELD MO
300 PM CDT THU APR 24 2014

......SGF CWA......

CITY           SKY/WX    TMP DP  RH WIND       PRES   REMARKS
SPRINGFIELD    RAIN      64  60  87 SW16G36   29.66R FOG
JOPLIN         CLOUDY    68  61  78 SW16G28   29.63F
WEST PLAINS    CLOUDY    73  53  49 SW12      29.70S
ROLLA          CLOUDY    74  51  44 S14       29.63F
OSAGE BEACH    PTSUNNY   77  52  41 S16G25    29.64S
BRANSON        LGT RAIN  70  55  60 SW20G30   29.71R

......SURROUNDING SGF CWA......

CITY           SKY/WX    TMP DP  RH WIND       PRES   REMARKS
CHANUTE        CLOUDY    60  55  83 NW18G30   29.70R
PARSONS        CLOUDY    60  55  83 NW22G28   29.71R
COFFEYVILLE    CLOUDY    61  55  81 NW20G26   29.71R
EMPORIA        CLOUDY    60  48  64 NW20G30   29.74R
SILOAM SPRINGS CLOUDY    64  55  72 S16G23    29.71F
HARRISON AR    LGT RAIN  66  57  72 S13G25    29.73S
NEAR YELLVILLE CLOUDY    68  52  56 S12G22    29.72R

......KANSAS AND MISSOURI......

CITY           SKY/WX    TMP DP  RH WIND       PRES   REMARKS
KANSAS CTY INT CLOUDY    57  53  86 N21G26    29.64R
DOWNTOWN KC    CLOUDY    58  53  84 N13G20    29.65R
COLUMBIA       PTSUNNY   77  52  41 S18G24    29.61F
SEDALIA        TSTM      59  54  83 W13G31    29.67R VSB 1
ST JOSEPH      CLOUDY    56  52  86 N13       29.67S
ST LOUIS       PTSUNNY   80  46  30 S21G26    29.67F
SPIRIT OF STL  PTSUNNY   77  47  34 S15G24    29.63F
KIRKSVILLE     TSTM      53  50  89 S10       29.65R FOG
WICHITA        CLOUDY    64  40  41 NW22G31   29.81R
TOPEKA         CLOUDY    62  52  69 NW16      29.70S
OLATHE         CLOUDY    56  52  86 NW15G25   29.67R

......TENNESSEE......

CITY           SKY/WX    TMP DP  RH WIND       PRES   REMARKS
MEMPHIS        PTSUNNY   81  55  40 SW12G23   29.81F
NASHVILLE      PTSUNNY   80  40  23 SW12G22   29.88F

......ARKANSAS.......

CITY           SKY/WX    TMP DP  RH WIND       PRES   REMARKS
FAYETTEVILLE   CLOUDY    66  61  84 S15G22    29.72F
FT SMITH       PTSUNNY   76  63  64 S12G18    29.69F
LITTLE ROCK    TSTM      73  63  70 SW3       29.72F FOG

......OKLAHOMA.......

CITY           SKY/WX    TMP DP  RH WIND       PRES   REMARKS
TULSA          PTSUNNY   66  56  70 NW17G29   29.73R
PONCA CITY     MOSUNNY   71  42  35 NW23G40   29.80R
MCALESTER      CLOUDY    74  57  55 W20G28    29.74R
OKLAHOMA CITY  MOSUNNY   76  41  28 NW28G39   29.84R

......IOWA............

CITY           SKY/WX    TMP DP  RH WIND       PRES   REMARKS
DES MOINES     DRIZZLE   55  50  83 NW16G22   29.68R
QUAD CITIES    CLOUDY    59  49  69 SE15      29.68F

......ILLINOIS........

CITY           SKY/WX    TMP DP  RH WIND       PRES   REMARKS
QUINCY         CLOUDY    63  53  70 E9        29.64F
CHICAGO        CLOUDY    62  32  32 SE25G33   29.81F



USA.gov is the U.S. government's official web portal to all federal, state and local government web resources and services.